Volver al catálogo

COSMOS 2483

ActivoNavegaciónPO
NORAD 39058·PAYLOAD·🇷🇺 Russia

Lanzado Jan 15, 2013 desde Plesetsk Cosmodrome

Loading…

Próximos Pases (próximas 24 horas)

TLE

ActualizadoSource: Space-Track

Época: Sep 14, 2026, 15:03 UTC

1 39058U 13001B   26257.62741806  .00000195  00000-0  13177-2 0  9992
2 39058  82.5040 159.1891 0016009 173.2531 186.8767 12.44027193612711

Sigue COSMOS 2483 en tiempo real con AllMySat

Download on the App Store